Regional Weather Roundup
Issued by NWS Kansas City/Pleasant Hill, MO

Home | Current Version | Previous Version | Graphics & Text | Print | Product List | Glossary Off
Versions: 1 2 3 4 5 6 7 8 9 10 11 12 13 14 15 16 17 18 19 20 21 22 23 24 25 26 27 28 29 30 31 32 33 34 35 36 37 38 39 40 41 42 43 44 45 46 47 48 49 50

932
ASUS43 KEAX 231410
RWREAX

WEATHER ROUNDUP FOR EASTERN KANSAS AND NORTHWEST MISSOURI
NATIONAL WEATHER SERVICE KANSAS CITY/PLEASANT HILL MO
900 AM CDT SAT SEP 23 2017

KSZ040-057-103>105-MOZ028-029-037-043-231500-
...KANSAS CITY METROPOLITAN AREA...

CITY           SKY/WX    TMP DP  RH WIND       PRES   REMARKS
K.C. INTL      MOSUNNY   77  70  79 S7        30.03R
K.C. DOWNTOWN  SUNNY     78  69  73 S7        30.02R
LEES SUMMIT    SUNNY     76  68  76 S10       30.04R
OLATHE - IXD   SUNNY     74  68  81 S9        30.03R
OLATHE - OJC   SUNNY     73  70  90 S5        30.03R
LAWRENCE       SUNNY     74  69  85 SE7       30.01R

$$

MOZ001>008-011>017-020>025-030>033-038>040-044>046-053-054-231500-
...NORTHERN AND CENTRAL MISSOURI...

CITY           SKY/WX    TMP DP  RH WIND       PRES   REMARKS
ST. JOSEPH     SUNNY     77  70  79 S3        30.01R
MOSBY          SUNNY     73  68  83 CALM      30.04R
WARRENSBURG    SUNNY     72  68  88 SE3       30.04R
WHITEMAN AFB   SUNNY     74  74 100 S5        30.04R
CLINTON        SUNNY     73  70  88 S3        30.05R
SEDALIA        SUNNY     78  71  79 S6        30.06R
WARSAW         NOT AVBL
CHILLICOTHE      N/A     76  70  82 CALM      30.04R
KIRKSVILLE     SUNNY     76  68  76 S7        30.08R

$$

MOZ041-047>049-056>058-063>065-088>090-097-231500-
...EASTERN AND SOUTHERN MISSOURI...

CITY           SKY/WX    TMP DP  RH WIND       PRES   REMARKS
ST. LOUIS INTL SUNNY     80  67  64 S3        30.08R
SPIRIT OF STL  SUNNY     74  68  81 CALM      30.07R
COLUMBIA       SUNNY     75  69  81 S5        30.07R
JEFFERSON CITY SUNNY     73  66  78 SE6       30.06R
ROLLA          SUNNY     77  66  68 S9        30.09R
OSAGE BEACH    SUNNY     74  67  78 CALM      30.08R
SPRINGFIELD    SUNNY     76  69  79 SE9       30.07R
BRANSON        SUNNY     75  66  73 CALM      30.09R
JOPLIN         SUNNY     77  70  79 S8        30.04R
WEST PLAINS    SUNNY     75  66  73 CALM      30.10R

$$

IAZ060-094-KSZ022-034>040-054-083-096-NEZ052-066-093-231500-
...KANSAS...SOUTHEAST NEBRASKA AND IOWA...

CITY           SKY/WX    TMP DP  RH WIND       PRES   REMARKS
TOPEKA         SUNNY     75  69  81 SE3       30.00R
MANHATTAN      MOSUNNY   78  66  66 S9        29.96R
EMPORIA        SUNNY     72  66  81 S12       30.00R
CHANUTE        SUNNY     74  68  81 SE9       30.02S
WICHITA        MOSUNNY   74  67  78 S10       29.97R
OMAHA          PTSUNNY   76  67  73 SE12      29.97R
LINCOLN        SUNNY     75  67  76 S9        29.95R
FALLS CITY     SUNNY     75  68  78 SE8       29.98R
LAMONI         SUNNY     74  68  81 S7        30.04R
DES MOINES     MOSUNNY   75  68  78 S9        30.02R

$$





USA.gov is the U.S. government's official web portal to all federal, state and local government web resources and services.